[[{"header":{"parameterUnit":"m.s-1","parameterCategory":1,"la1":30.2991,"la2":30.254,"lo1":-89.0895,"lo2":-89.0444,"dy":0.0017,"dx":0.0017,"nx":28,"ny":28,"refTime":"2025-06-20T21:00:00:Z","depth":0,"parameterNumber":2,"parameterNumberName":"U-component_of_WINDS"},"data":[0,0,0,0,0,0,0,0,0,0,0,0,0,0,0,0,0,0,0,0,0,0,0,0,0,0,0,0,0,0,0,0,0,0,0,0,0,0,0,0,0,0,0,0,0,0,0,0,0,0,0,0,0,0,0,0,0,0,4.0838,4.0839,0,4.095,4.0951,4.0952,4.0888,4.0885,4.0881,4.0878,4.0992,4.0998,4.1004,0,0,0,0,0,0,0,0,0,0,0,0,0,4.0565,4.0571,4.0838,4.0839,4.0841,4.095,4.0951,4.0953,4.0888,4.0884,4.0881,4.0877,4.099,4.0997,4.1005,0,0,0,0,0,0,0,0,0,0,0,0,0,4.0681,4.0573,4.0837,4.0822,4.0821,4.0949,4.0951,4.0953,4.0889,4.0884,4.088,4.0875,4.0988,4.0997,4.1006,4.1156,0,0,4.1033,4.1037,0,0,0,0,0,0,0,0,4.0675,4.0691,4.0822,4.0823,4.0823,4.09,4.0897,4.1021,4.089,4.0863,4.0878,4.0873,4.0965,4.0976,4.1007,4.1161,4.1166,4.1034,4.1039,4.1043,4.1046,0,0,0,0,0,0,0,4.0667,4.0686,4.0882,4.0824,4.0825,4.0808,4.0819,4.092,4.094,4.0865,4.0861,4.0875,4.0965,4.0999,4.101,4.1167,4.1034,4.1042,4.1047,4.1051,4.1447,4.1452,0,0,0,0,0,0,4.066,4.068,4.0878,4.0885,4.0736,4.0817,4.0829,4.088,4.0938,4.0943,4.0879,4.0872,4.0986,4.0999,4.1013,4.1191,4.1043,4.1051,4.1057,4.1442,4.1448,4.1454,0,0,0,0,0,0,4.0655,4.0679,4.0874,4.0782,4.0805,4.0827,4.0884,4.0885,4.0919,4.0949,4.0952,4.0911,4.0983,4.1001,4.112,4.1194,4.1055,4.1064,4.1436,4.1444,4.1451,4.1548,0,0,0,0,0,0,4.0647,4.0677,4.0735,4.0783,4.081,4.098,4.0889,4.089,4.0935,4.0926,4.0979,4.0983,4.098,4.1107,4.1129,4.1204,4.1071,4.1429,4.1439,4.1448,4.1538,4.1558,4.1575,0,0,0,0,0,4.0638,4.0758,4.0738,4.0762,4.0883,4.0984,4.1,4.0994,4.0941,4.0998,4.1017,4.0982,4.1183,4.112,4.1144,4.1222,4.1425,4.1437,4.1448,4.153,4.1554,4.1575,0,0,0,0,0,0,4.0717,4.0764,4.0742,4.0882,4.093,4.0973,4.1046,4.102,4.1084,4.1073,4.1063,4.1076,4.12,4.1223,4.1153,4.1369,4.1295,4.1312,4.1349,4.1373,4.1391,4.1382,4.1078,0,0,0,0,0,4.0751,4.083,4.0866,4.0986,4.1011,4.1025,4.1069,4.106,4.1109,4.1129,4.1156,4.1204,4.1278,4.1327,4.1397,4.1542,4.1551,4.1607,4.1626,4.1641,4.1655,4.1731,4.1756,4.1492,4.1492,4.1492,0,0,4.0822,4.0857,4.0908,4.1003,4.1039,4.112,4.1042,4.1131,4.1191,4.1142,4.1256,4.1278,4.1331,4.1463,4.1523,4.1487,4.173,4.1655,4.1667,4.1673,4.1746,4.177,4.1793,4.15,4.1498,4.1497,0,0,4.0992,4.1028,4.113,4.1167,4.1223,4.123,4.1255,4.1303,4.1315,4.143,4.1394,4.1464,4.1592,4.1631,4.1667,4.185,4.1819,4.1873,4.1969,4.2043,4.2064,4.2082,4.2145,4.2168,4.1888,4.1888,4.1888,0,4.1073,4.1194,4.1186,4.1278,4.132,4.1279,4.1382,4.1419,4.1494,4.1524,4.1482,4.164,4.1673,4.1813,4.1857,4.1889,4.1915,4.1866,4.2061,4.208,4.2097,4.2157,4.2181,4.1894,4.1893,4.1893,4.1892,0,4.1289,4.1374,4.145,4.1523,4.1574,4.1671,4.1677,4.1729,4.1716,4.1728,4.1844,4.1882,4.1958,4.199,4.1979,4.2128,4.2104,4.2062,4.1987,4.2128,4.2184,4.2207,4.1903,4.1901,4.1899,4.1897,0,0,4.1513,4.1579,4.1607,4.1639,4.1696,4.1761,4.1855,4.1929,4.1973,4.2027,4.2104,4.2213,4.2174,4.2215,4.2208,4.2273,4.2413,4.2223,4.2224,4.2255,4.2577,4.2606,4.2633,4.2393,4.2397,4.2401,4.2572,0,4.1684,4.1849,4.1845,4.1998,4.2074,4.2037,4.2118,4.2162,4.2176,4.2242,4.2256,4.2333,4.2277,4.2301,4.2365,4.2383,4.2477,4.237,4.2463,4.2467,4.2449,4.2663,4.2695,4.2854,4.2594,4.2598,4.26,0,4.1907,4.1967,4.2128,4.2172,4.2204,4.2277,4.2343,4.2408,4.2456,4.2461,4.2507,4.2488,4.2582,4.2506,4.2634,4.2562,4.26,4.2614,4.262,4.2627,4.2541,4.2673,4.2905,4.2928,4.2635,4.2632,4.263,0,4.2051,4.2172,4.2283,4.2312,4.2367,4.2419,4.2444,4.2487,4.2531,4.2589,4.2617,4.2686,4.2723,4.2776,4.2775,4.272,4.2905,4.2829,4.291,4.291,4.2949,4.2946,4.3188,4.2977,4.2977,4.2977,4.2976,0,4.2242,4.2342,4.2348,4.2416,4.2526,4.2519,4.2627,4.2647,4.2686,4.2756,4.2728,4.2795,4.2792,4.2859,4.2859,4.2964,4.2982,4.2987,4.2986,4.2989,4.2988,4.3012,4.3,4.2983,4.2982,4.298,4.2979,0,4.2421,4.243,4.2548,4.259,4.2603,4.2681,4.2717,4.2781,4.2792,4.2881,4.2902,4.2918,4.2996,4.3001,4.3091,4.3091,4.3218,4.3206,4.3202,4.3199,4.3279,4.327,4.3542,4.3577,4.3346,4.3348,4.335,0,4.2542,4.2617,4.2667,4.2712,4.274,4.2814,4.2858,4.2854,4.2901,4.296,4.3017,4.3092,4.3151,4.3276,4.3296,4.3364,4.3351,4.3442,4.3361,4.3361,4.335,4.3345,4.3351,4.3457,4.346,4.3462,4.3464,0,4.2754,4.2754,4.282,4.2887,4.294,4.2993,4.3042,4.308,4.3082,4.3136,4.3215,4.3261,4.3352,4.3425,4.3492,4.3516,4.349,4.3489,4.3511,4.3514,4.3507,4.3509,4.3242,4.3482,4.3481,4.3479,4.3478,4.3477,4.2906,4.297,4.3015,4.3088,4.3124,4.317,4.3232,4.325,4.3315,4.3389,4.3383,4.3469,4.3513,4.3599,4.3629,4.3696,4.3665,4.3697,4.3705,4.3713,4.372,4.3498,4.3708,4.3708,4.3707,4.3707,4.3706,0,4.3115,4.3141,4.3209,4.3278,4.3335,4.3306,4.3358,4.3407,4.3484,4.3527,4.3586,4.3675,4.3746,4.3771,4.384,4.3888,4.3878,4.3906,4.3902,4.3907,4.3745,4.3718,4.3913,4.3913,4.3913,4.3913,4.3913,4.3913,4.323,4.3336,4.3342,4.3465,4.3491,4.3575,4.3607,4.3649,4.3683,4.3784,4.3843,4.3859,4.3894,4.3965,4.4028,4.4033,4.4059,4.4092,4.4092,4.394,4.3919,4.3899,4.3873,4.4098,4.4099,4.4249,4.425,4.4251]},{"header":{"parameterUnit":"m.s-1","parameterCategory":1,"la1":30.2991,"la2":30.254,"lo1":-89.0895,"lo2":-89.0444,"dy":0.0017,"dx":0.0017,"nx":28,"ny":28,"refTime":"2025-06-20T21:00:00:Z","depth":0,"parameterNumber":3,"parameterNumberName":"V-component_of_WINDS"},"data":[0,0,0,0,0,0,0,0,0,0,0,0,0,0,0,0,0,0,0,0,0,0,0,0,0,0,0,0,0,0,0,0,0,0,0,0,0,0,0,0,0,0,0,0,0,0,0,0,0,0,0,0,0,0,0,0,0,0,0.4174,0.4175,0,0.4193,0.4194,0.4194,0.4176,0.4175,0.4175,0.4174,0.4195,0.4197,0.4198,0,0,0,0,0,0,0,0,0,0,0,0,0,0.4123,0.4124,0.4174,0.4175,0.4175,0.4193,0.4194,0.4194,0.4176,0.4175,0.4174,0.4174,0.4195,0.4196,0.4198,0,0,0,0,0,0,0,0,0,0,0,0,0,0.4144,0.4125,0.4174,0.4168,0.4168,0.4193,0.4194,0.4194,0.4176,0.4175,0.4174,0.4173,0.4194,0.4196,0.4198,0.4231,0,0,0.4204,0.4205,0,0,0,0,0,0,0,0,0.4143,0.4146,0.4169,0.4169,0.4168,0.4181,0.4183,0.4207,0.4177,0.4173,0.4174,0.4173,0.4192,0.4194,0.42,0.4232,0.4233,0.4204,0.4205,0.4206,0.4206,0,0,0,0,0,0,0,0.4142,0.4145,0.4182,0.4169,0.4169,0.4165,0.4166,0.4188,0.4188,0.4173,0.4172,0.4174,0.4191,0.4198,0.42,0.4234,0.4204,0.4206,0.4207,0.4207,0.4293,0.4294,0,0,0,0,0,0,0.4141,0.4144,0.4181,0.4183,0.4153,0.4166,0.4168,0.4178,0.4188,0.4188,0.4175,0.4174,0.4195,0.4198,0.4201,0.424,0.4206,0.4208,0.4209,0.4292,0.4293,0.4295,0,0,0,0,0,0,0.414,0.4144,0.4181,0.4163,0.4167,0.4168,0.418,0.4179,0.4186,0.4189,0.419,0.4182,0.4195,0.4198,0.4223,0.424,0.4208,0.421,0.4291,0.4292,0.4294,0.4318,0,0,0,0,0,0,0.4138,0.4144,0.4157,0.4163,0.4168,0.4203,0.4181,0.418,0.4189,0.4187,0.4196,0.4196,0.4194,0.4221,0.4225,0.4242,0.4212,0.4289,0.4291,0.4293,0.4316,0.4321,0.4325,0,0,0,0,0,0.4136,0.4163,0.4157,0.4162,0.4184,0.4204,0.4207,0.4203,0.419,0.4203,0.4205,0.4196,0.4237,0.4223,0.4228,0.4246,0.4288,0.4291,0.4293,0.4314,0.432,0.4325,0,0,0,0,0,0,0.416,0.4164,0.4158,0.4187,0.4195,0.4201,0.4217,0.4209,0.4222,0.4219,0.4214,0.4216,0.4243,0.4247,0.4231,0.4278,0.4261,0.4264,0.4275,0.428,0.4285,0.4283,0.4213,0,0,0,0,0,0.4168,0.4183,0.4187,0.4213,0.4217,0.4216,0.4225,0.4221,0.4229,0.4233,0.4237,0.4246,0.426,0.427,0.4284,0.4316,0.4318,0.4331,0.4335,0.4338,0.4342,0.4358,0.4364,0.4303,0.4303,0.4303,0,0,0.4186,0.419,0.4201,0.4217,0.4223,0.4239,0.4219,0.4238,0.425,0.4236,0.426,0.4263,0.4272,0.4301,0.4313,0.4305,0.4359,0.4342,0.4345,0.4346,0.4362,0.4367,0.4373,0.4305,0.4305,0.4304,0,0,0.4227,0.4232,0.4254,0.4259,0.4268,0.4267,0.4272,0.4278,0.4279,0.4303,0.4293,0.4307,0.4333,0.4339,0.4346,0.4388,0.438,0.4392,0.4415,0.4431,0.4436,0.444,0.4455,0.446,0.4396,0.4396,0.4396,0,0.4249,0.4272,0.4266,0.4285,0.4292,0.4279,0.4301,0.4307,0.4319,0.4325,0.4315,0.4346,0.4351,0.4381,0.4391,0.4397,0.4402,0.4392,0.4436,0.444,0.4444,0.4457,0.4463,0.4397,0.4397,0.4397,0.4397,0,0.4298,0.4315,0.4331,0.4343,0.4352,0.4372,0.4369,0.4379,0.4374,0.4374,0.4397,0.4403,0.4417,0.4424,0.442,0.4453,0.4447,0.4436,0.4419,0.4451,0.4464,0.4469,0.4399,0.4399,0.4398,0.4398,0,0,0.4356,0.4362,0.4369,0.4373,0.438,0.4393,0.4412,0.4425,0.4434,0.4443,0.4459,0.448,0.4469,0.4477,0.4473,0.4487,0.4519,0.4475,0.4475,0.4483,0.4555,0.4563,0.457,0.4513,0.4514,0.4515,0.4554,0,0.4398,0.443,0.4424,0.4456,0.4471,0.4458,0.4474,0.448,0.448,0.4493,0.4493,0.4508,0.4494,0.4498,0.4511,0.4512,0.4533,0.4509,0.4528,0.4529,0.4527,0.4576,0.4586,0.4623,0.4559,0.456,0.4561,0,0.4451,0.446,0.4493,0.4496,0.4502,0.4518,0.4528,0.454,0.4547,0.4546,0.4553,0.4546,0.4565,0.4546,0.4572,0.4556,0.4563,0.4564,0.4566,0.4568,0.4547,0.458,0.4634,0.464,0.4569,0.4568,0.4567,0,0.449,0.451,0.4533,0.4537,0.4542,0.4552,0.4555,0.456,0.4568,0.4577,0.4582,0.4594,0.4601,0.461,0.4606,0.4593,0.4632,0.4613,0.4632,0.4632,0.4642,0.4642,0.4698,0.4646,0.4646,0.4646,0.4646,0,0.4537,0.4557,0.455,0.4564,0.4586,0.4579,0.4602,0.4603,0.4607,0.4621,0.461,0.4623,0.4617,0.4629,0.4626,0.4648,0.4651,0.4651,0.465,0.4652,0.4652,0.4657,0.4655,0.4647,0.4647,0.4647,0.4646,0,0.4585,0.458,0.4604,0.4605,0.4606,0.4623,0.4625,0.4637,0.4636,0.4653,0.4657,0.4655,0.4669,0.4665,0.4681,0.4679,0.4706,0.4702,0.4704,0.4703,0.4722,0.472,0.4785,0.4792,0.4734,0.4735,0.4735,0,0.4615,0.4631,0.4634,0.4641,0.4644,0.4658,0.4665,0.4658,0.4666,0.4673,0.4685,0.4698,0.4708,0.4731,0.4731,0.4743,0.4739,0.476,0.4741,0.4742,0.4739,0.4738,0.474,0.4765,0.4765,0.4766,0.4766,0,0.467,0.4667,0.4677,0.4687,0.4696,0.4703,0.471,0.4717,0.471,0.472,0.4733,0.4741,0.4756,0.4769,0.4779,0.4782,0.4773,0.4772,0.4777,0.478,0.4781,0.478,0.4715,0.4771,0.4771,0.477,0.477,0.477,0.471,0.4723,0.4727,0.4739,0.4742,0.4748,0.476,0.4759,0.477,0.4781,0.4776,0.4792,0.4797,0.4809,0.4813,0.4825,0.4817,0.4825,0.4826,0.4828,0.4831,0.4778,0.4827,0.4827,0.4827,0.4827,0.4827,0,0.4765,0.4766,0.4777,0.4785,0.4794,0.4784,0.479,0.4799,0.4812,0.4817,0.4826,0.4842,0.4854,0.4854,0.4865,0.4874,0.487,0.4878,0.4877,0.4878,0.4837,0.4832,0.488,0.488,0.488,0.488,0.488,0.488,0.4794,0.4815,0.4811,0.4833,0.4834,0.4849,0.4853,0.4859,0.4862,0.4879,0.4889,0.4888,0.4891,0.4902,0.4912,0.4912,0.4917,0.4925,0.4923,0.4886,0.4881,0.4876,0.4871,0.4926,0.4926,0.4963,0.4963,0.4963]}]]